METEOR 2-5 DEB, 39606

Orbit data source: Space-Track

METEOR 2-5 DEB, 39606 is space debris in LEO originally from a launch on Wed, 31 Oct 1979 UTC launched from the Plesetsk Missile And Space Complex (PKMTR). Debris objects in space refer to the collection of defunct objects orbiting the Earth. Examples of debris include non-operational satellites, rocket bodies, and fragments generated from explosions, collisions, or faulty payload assembly.

Loading next visibility...
Identifier
39606, 1979-095CH
Orbit
LEO
Country
Flag of CISCIS
Related business
Manufacturer
Unknown
Mission
Spacecraft
Bus & Motor
Unknown
Mass
Unknown
Launch date (UTC)
1979-10-31 (47 years ago)
Launch vehicle
Unknown
Launch site
Plesetsk Missile And Space Complex (PKMTR)
Object type
Payload
Rocket body
Debris
Shape & HBR
Unknown shape, 0.1 m
Radar Cross Section
Small (<0.1 m²)

Expand to show TLE details & history
Last TLE update: 1 week ago

TLE from 1 week ago
0 METEOR 2-5 DEB
1 39606U 79095CH  26164.54842950  .00007387  00000-0  20038-2 0  9990
2 39606  81.1762 104.4768 0011711 359.1956   0.9214 14.47517059 79375
Epoch: 2026-06-13T13:09Z
TLE epoch observation values (Epoch: 2026-06-13T13:09:44.308Z)
Latitude
-0.00007°
Longitude
5.18023°
Altitude
728.389 km
Speed
7.495 km/s
True Right ascension
06h 57m 54s
True Declination
0° 00' 00"
Sunlit
Object was in daylight at epoch
Visualization orbit readout
Latitude
Unknown
Longitude
Unknown
Altitude
Unknown
Speed
Unknown
Apparent Right ascension
Unknown
Apparent Declination
Unknown
Sunlit
N/A
Visualization observer readout
Local Sidereal Time
23:18:25
Azimuth
Unknown
Elevation
Unknown
Doppler factor
Unknown
Orbital elements
Apogee altitude
739.223 km
Perigee altitude
722.572 km
Semi-major axis
7,109.034 km
Eccentricity
0.00117
Inclination
81.1762°
RAAN
104.4768°
Arg. of periapsis
359.1956°
True anomaly
0.92356°
Mean anomaly
0.9214°
Eccentric anomaly
0.92248°
Mean motion
3.62099 °/min
Orbital period
99.42 mins
BSTAR
0.0020038
Loading maneuver chart data...
Computing Atmospheric mass density...

Documentation

Showing up to 5 results
|